Location: Mohawk View
(42.7837°N, 73.7885°W)
Time: 01:01:32
(UTC+00:00)

Cosmos 2369 Rocket - Pass Details

Date: 17 June 2021
Orbit: 828 x 854 km, 71.0° (Epoch: 02 August)

Event Time Altitude Azimuth Distance (km) Brightness Sun altitude
Rises 06:19:48 0° 334° (NNW) 3,431 6.0 -21.1°
Reaches altitude 10° 06:22:16 10° 334° (NNW) 2,492 5.2 -20.9°
Maximum altitude 06:28:01 85° 247° (WSW) 861 2.1 -20.5°
Enters shadow 06:31:05 29° 161° (SSE) 1,519 3.1 -20.3°
